Date String (YYYY-MM-DD hh:mm:ss) UTC,Instrument flags,absolute air pressure of the measurement (hPa),sample flow rate (lpm),inlet stack bypass flow (lpm),air temperature of the measurement (°C),ambient temperature measured by the external sensor (°C),aerosol sample conditioner tube jacket temperature (°C),OPC LED temperature (°C),internal box temperature (°C),relative humidity of the measurement (%),span deviation,mass concentration of particles derived from Lorenz-Mie calculation of OPC scattering (μg/m³),mass concentration of particles derived from Lorenz-Mie calculation of OPC scattering (μg/m³),mass concentration of particles derived from Lorenz-Mie calculation of OPC scattering (μg/m³)
DateTimeUTC,F1_M11,P_M11,Q1_M11,Q2_M11,T1_M11,T2_M11,T3_M11,T4_M11,T5_M11,U1_M11,ZSPAN_M11,X0_M11,X2_M11,X1_M11
2024-02-17 23:00:00,SystemResetWarning,0831.9,5.00,000.00,018.3,017.6,000.0,027.0,020.0,12.3,0000.0,0008.61,0004.35,0004.12
2024-02-17 23:01:00,SystemResetWarning,0831.8,4.99,000.00,018.3,017.6,000.0,027.0,020.0,12.5,0000.0,0008.78,0004.36,0004.13
2024-02-17 23:02:00,SystemResetWarning,0831.8,4.99,000.00,018.3,017.6,000.0,027.0,020.0,12.3,0000.0,0008.96,0004.37,0004.13
2024-02-17 23:03:00,SystemResetWarning,0831.8,5.00,000.00,018.3,017.6,000.0,027.0,020.0,12.3,0000.0,0008.82,0004.38,0004.13
2024-02-17 23:04:00,SystemResetWarning,0831.8,5.00,000.00,018.3,017.5,000.0,027.0,020.0,12.3,0000.0,0008.32,0004.35,0004.12
2024-02-17 23:05:00,SystemResetWarning,0831.8,5.01,000.00,018.3,017.5,000.0,027.0,020.0,12.5,0000.0,0008.26,0004.33,0004.11
2024-02-17 23:06:00,SystemResetWarning,0831.7,5.01,000.00,018.3,017.5,000.0,027.0,020.0,12.4,0000.0,0008.24,0004.32,0004.11
2024-02-17 23:07:00,SystemResetWarning,0831.7,5.00,000.00,018.3,017.5,000.0,027.0,020.0,12.4,0000.0,0008.09,0004.30,0004.11
2024-02-17 23:08:00,SystemResetWarning,0831.9,4.99,000.00,018.3,017.5,000.0,027.0,020.0,12.9,0000.0,0007.96,0004.30,0004.10
2024-02-17 23:09:00,SystemResetWarning,0832.0,5.00,000.00,018.3,017.5,000.0,027.0,020.0,12.6,0000.0,0007.73,0004.29,0004.10
2024-02-17 23:10:00,SystemResetWarning,0831.9,4.99,000.00,018.3,017.5,000.0,027.0,020.0,12.3,0000.0,0007.46,0004.30,0004.09
2024-02-17 23:11:00,SystemResetWarning,0831.7,5.00,000.00,018.3,017.5,000.0,027.0,020.0,12.4,0000.0,0007.45,0004.30,0004.09
2024-02-17 23:12:00,SystemResetWarning,0831.8,5.00,000.00,018.3,017.5,000.0,027.0,020.0,12.6,0000.0,0007.24,0004.28,0004.08
2024-02-17 23:13:00,SystemResetWarning,0831.7,5.01,000.00,018.3,017.5,000.0,027.0,020.0,12.4,0000.0,0007.09,0004.28,0004.09
2024-02-17 23:14:00,SystemResetWarning,0831.7,5.01,000.00,018.3,017.5,000.0,027.0,020.0,12.6,0000.0,0007.25,0004.27,0004.08
2024-02-17 23:15:00,SystemResetWarning,0831.8,5.00,000.00,018.3,017.5,000.0,027.0,020.0,12.5,0000.0,0007.26,0004.27,0004.09
2024-02-17 23:16:00,SystemResetWarning,0831.7,5.01,000.00,018.3,017.5,000.0,027.0,020.0,12.6,0000.0,0007.35,0004.30,0004.10
2024-02-17 23:17:00,SystemResetWarning,0831.7,4.99,000.00,018.3,017.5,000.0,027.0,020.0,12.6,0000.0,0007.40,0004.31,0004.10
2024-02-17 23:18:00,SystemResetWarning,0831.7,5.00,000.00,018.3,017.5,000.0,027.0,020.0,12.4,0000.0,0007.49,0004.34,0004.11
2024-02-17 23:19:00,SystemResetWarning,0831.7,5.01,000.00,018.3,017.5,000.0,027.0,020.0,12.6,0000.0,0007.48,0004.34,0004.11
2024-02-17 23:20:00,SystemResetWarning,0831.7,5.00,000.00,018.3,017.5,000.0,027.0,020.0,12.6,0000.0,0007.55,0004.38,0004.12
2024-02-17 23:21:00,SystemResetWarning,0831.7,5.00,000.00,018.3,017.5,000.0,027.0,020.0,12.6,0000.0,0007.57,0004.38,0004.13
2024-02-17 23:22:00,SystemResetWarning,0831.7,4.99,000.00,018.3,017.5,000.0,027.0,020.0,12.6,0000.1,0007.44,0004.38,0004.14
2024-02-17 23:23:00,SystemResetWarning,0831.7,5.00,000.00,018.3,017.5,000.0,027.0,020.0,12.3,0000.8,0007.55,0004.41,0004.15
2024-02-17 23:24:00,SystemResetWarning,0831.6,5.00,000.00,018.3,017.5,000.0,027.0,020.0,12.3,0001.4,0007.53,0004.43,0004.16
2024-02-17 23:25:00,SystemResetWarning,0831.6,5.00,000.00,018.3,017.5,000.0,027.0,020.0,12.4,0000.7,0007.07,0004.45,0004.17
2024-02-17 23:26:00,SystemResetWarning,0831.6,5.02,000.00,018.3,017.5,000.0,027.0,020.0,12.3,0000.0,0007.26,0004.47,0004.18
2024-02-17 23:27:00,SystemResetWarning,0831.6,5.00,000.00,018.3,017.5,000.0,027.0,020.0,12.5,0000.0,0007.22,0004.46,0004.17
2024-02-17 23:28:00,SystemResetWarning,0831.6,4.99,000.00,018.3,017.5,000.0,027.0,020.0,12.0,0000.0,0007.36,0004.49,0004.18
2024-02-17 23:29:00,SystemResetWarning,0831.6,4.99,000.00,018.3,017.4,000.0,027.0,020.0,12.3,0000.0,0007.49,0004.52,0004.19
2024-02-17 23:30:00,SystemResetWarning,0831.6,5.00,000.00,018.3,017.5,000.0,027.0,020.0,12.3,0000.0,0007.51,0004.52,0004.21
2024-02-17 23:31:00,SystemResetWarning,0831.6,5.01,000.00,018.3,017.5,000.0,027.0,020.0,12.1,0000.0,0007.51,0004.50,0004.20
2024-02-17 23:32:00,SystemResetWarning,0831.6,5.00,000.00,018.3,017.5,000.0,027.0,020.0,12.1,0000.0,0007.56,0004.50,0004.20
2024-02-17 23:33:00,SystemResetWarning,0831.6,5.00,000.00,018.3,017.5,000.0,027.0,020.0,12.1,0000.0,0007.31,0004.52,0004.21
2024-02-17 23:34:00,SystemResetWarning,0831.6,5.00,000.00,018.3,017.5,000.0,027.0,020.0,12.4,0000.0,0007.78,0004.50,0004.20
2024-02-17 23:35:00,SystemResetWarning,0831.6,5.00,000.00,018.3,017.5,000.0,027.0,020.0,12.3,0000.0,0007.98,0004.48,0004.19
2024-02-17 23:36:00,SystemResetWarning,0831.5,5.00,000.00,018.3,017.5,000.0,027.0,020.0,12.2,0000.0,0008.38,0004.48,0004.19
2024-02-17 23:37:00,SystemResetWarning,0831.5,5.00,000.00,018.3,017.5,000.0,027.0,020.0,12.5,0000.0,0008.67,0004.46,0004.18
2024-02-17 23:38:00,SystemResetWarning,0831.5,5.00,000.00,018.3,017.4,000.0,027.0,020.0,12.4,0000.0,0008.96,0004.46,0004.17
2024-02-17 23:39:00,SystemResetWarning,0831.5,5.00,000.00,018.3,017.4,000.0,027.0,020.0,12.1,0000.0,0008.86,0004.43,0004.16
2024-02-17 23:40:00,SystemResetWarning,0831.5,5.00,000.00,018.3,017.4,000.0,027.0,020.0,12.1,0000.0,0008.67,0004.37,0004.13
2024-02-17 23:41:00,SystemResetWarning,0831.5,5.01,000.00,018.3,017.4,000.0,027.0,020.0,12.3,0000.0,0008.60,0004.34,0004.12
2024-02-17 23:42:00,SystemResetWarning,0831.5,5.01,000.00,018.3,017.4,000.0,027.0,020.0,12.5,0000.0,0008.54,0004.33,0004.11
2024-02-17 23:43:00,SystemResetWarning,0831.5,5.01,000.00,018.3,017.4,000.0,027.0,020.0,12.7,0000.0,0008.44,0004.30,0004.10
2024-02-17 23:44:00,SystemResetWarning,0831.5,4.99,000.00,018.3,017.4,000.0,027.0,020.0,13.0,0000.0,0008.51,0004.30,0004.09
2024-02-17 23:45:00,SystemResetWarning,0831.5,4.99,000.00,018.3,017.4,000.0,027.0,020.0,12.8,0000.0,0008.10,0004.30,0004.08
2024-02-17 23:46:00,SystemResetWarning,0831.5,5.00,000.00,018.3,017.4,000.0,027.0,020.0,12.7,0000.0,0008.30,0004.30,0004.07
2024-02-17 23:47:00,SystemResetWarning,0831.5,5.01,000.00,018.3,017.4,000.0,027.0,020.0,12.6,0000.0,0008.24,0004.33,0004.08
2024-02-17 23:48:00,SystemResetWarning,0831.5,5.01,000.00,018.3,017.4,000.0,027.0,020.0,12.5,0000.0,0007.88,0004.33,0004.08
2024-02-17 23:49:00,SystemResetWarning,0831.5,4.99,000.00,018.3,017.4,000.0,027.0,020.0,12.3,0000.0,0007.58,0004.33,0004.08
2024-02-17 23:50:00,SystemResetWarning,0831.5,4.99,000.00,018.3,017.4,000.0,027.0,020.0,12.2,0000.0,0007.62,0004.35,0004.08
2024-02-17 23:51:00,SystemResetWarning,0831.5,5.01,000.00,018.3,017.4,000.0,027.0,020.0,12.3,0000.0,0007.61,0004.36,0004.09
2024-02-17 23:52:00,SystemResetWarning,0831.5,5.01,000.00,018.3,017.4,000.0,027.0,020.0,12.5,0000.0,0007.70,0004.37,0004.09
2024-02-17 23:53:00,SystemResetWarning,0831.5,4.99,000.00,018.3,017.4,000.0,027.0,020.0,12.5,0000.0,0007.77,0004.41,0004.11
2024-02-17 23:54:00,SystemResetWarning,0831.5,4.99,000.00,018.3,017.4,000.0,027.0,020.0,12.5,0000.0,0008.58,0004.43,0004.12
2024-02-17 23:55:00,SystemResetWarning,0831.5,5.02,000.00,018.3,017.4,000.0,027.0,020.0,12.5,0000.0,0008.63,0004.44,0004.15
2024-02-17 23:56:00,SystemResetWarning,0831.5,5.00,000.00,018.3,017.4,000.0,027.0,020.0,12.7,0000.0,0008.47,0004.44,0004.17
2024-02-17 23:57:00,SystemResetWarning,0831.5,4.99,000.00,018.3,017.4,000.0,027.0,020.0,12.7,0000.0,0007.98,0004.44,0004.18
2024-02-17 23:58:00,SystemResetWarning,0831.5,4.99,000.00,018.3,017.4,000.0,027.0,020.0,12.8,0000.0,0007.77,0004.43,0004.17
2024-02-17 23:59:00,SystemResetWarning,0831.4,5.01,000.00,018.3,017.4,000.0,027.0,020.0,12.9,0000.0,0007.98,0004.41,0004.16
